Regional Weather Roundup
Issued by NWS

Home | Current Version | Previous Version | Text Only | Print | Product List | Glossary Off
Versions: 1 2 3 4 5 6 7 8 9 10 11 12 13 14 15 16 17 18 19 20 21 22 23 24 25 26 27 28 29 30 31 32 33 34 35 36 37 38 39 40 41 42 43 44 45 46 47 48 49 50

000
ASUS45 KBOI 242310
RWRID
WEATHER ROUNDUP FOR IDAHO
NATIONAL WEATHER SERVICE BOISE ID
400 PM MST SAT JAN 24 2015

NOTE: "FAIR" INDICATES FEW OR NO CLOUDS BELOW 12000 FEET
WITH NO SIGNIFICANT WEATHER AND/OR OBSTRUCTIONS TO VISIBILITY

IDZ012-014-250000-
SOUTHWEST IDAHO


CITY           SKY/WX    TMP DP  RH WIND       PRES   REMARKS
BOISE          CLOUDY    39  31  72 CALM      30.45R
CALDWELL       CLOUDY    39  28  65 CALM      30.48S
MOUNTAIN HOME  CLOUDY    37  30  75 E2        30.45R
$$

IDZ016-017-250000-
SOUTHCENTRAL IDAHO


CITY           SKY/WX    TMP DP  RH WIND       PRES   REMARKS
BURLEY         CLOUDY    41  31  67 CALM      30.40S
JEROME         SUNNY     36  30  79 N9        30.42R WCI  29
TWIN FALLS     PTSUNNY   42  33  70 NW6       30.41R
$$

IDZ019>023-250000-
SOUTHEAST IDAHO


CITY           SKY/WX    TMP DP  RH WIND       PRES   REMARKS
IDAHO FALLS    CLOUDY    28  26  92 N3        30.43R FOG
POCATELLO      CLOUDY    32  29  88 NE8       30.44R WCI  25
REXBURG        CLOUDY    27  26  96 CALM      30.42S FOG
$$

IDZ006-010-011-018-031-032-250000-
CENTRAL IDAHO MOUNTAINS


CITY           SKY/WX    TMP DP  RH WIND       PRES   REMARKS
MCCALL         CLOUDY    37  32  82 N3        30.39R
STANLEY          N/A     40  31  70 CALM      30.38R
SALMON         MOSUNNY   30  21  69 CALM      30.38S
CHALLIS        CLOUDY    37  27  67 CALM      30.35R
$$

IDZ002-004-006-007-026-250000-
NORTHERN IDAHO


CITY           SKY/WX    TMP DP  RH WIND       PRES   REMARKS
LEWISTON       CLOUDY    51  44  77 E9        30.31S
LOWELL           N/A     38  37  97 N5        30.39S WCI  34
COEUR D`ALENE  CLOUDY    39  37  93 CALM      30.27S VSB 1/4
MULLAN PASS    FOG       36  36 100 SW7       30.26F VSB 1/4 WCI  30
$$


USA.gov is the U.S. government's official web portal to all federal, state and local government web resources and services.